TimeCDT,TemperatureF,Dew PointF,Humidity,Sea Level PressureIn,VisibilityMPH,Wind Direction,Wind SpeedMPH,Gust SpeedMPH,PrecipitationIn,Events,Conditions,WindDirDegrees,DateUTC
12:15 AM,37.4,35.6,93,30.08,10.0,Calm,Calm,-,N/A,,Clear,0,2013-03-19 05:15:00
12:35 AM,35.6,35.6,100,30.08,10.0,Calm,Calm,-,N/A,,Clear,0,2013-03-19 05:35:00
12:55 AM,35.6,35.6,100,30.08,10.0,Calm,Calm,-,N/A,,Clear,0,2013-03-19 05:55:00
1:15 AM,33.8,33.8,100,30.07,10.0,Calm,Calm,-,N/A,,Clear,0,2013-03-19 06:15:00
1:35 AM,33.8,33.8,100,30.06,10.0,Calm,Calm,-,N/A,,Clear,0,2013-03-19 06:35:00
1:55 AM,33.8,33.8,100,30.04,10.0,Calm,Calm,-,N/A,,Clear,0,2013-03-19 06:55:00
2:15 AM,33.8,33.8,100,30.06,10.0,Calm,Calm,-,N/A,,Clear,0,2013-03-19 07:15:00
2:35 AM,32.0,32.0,100,30.08,10.0,Calm,Calm,-,N/A,,Clear,0,2013-03-19 07:35:00
2:55 AM,33.8,33.8,100,30.09,10.0,Calm,Calm,-,N/A,,Clear,0,2013-03-19 07:55:00
3:15 AM,33.8,33.8,100,30.08,10.0,Calm,Calm,-,N/A,,Clear,0,2013-03-19 08:15:00
3:35 AM,32.0,32.0,100,30.08,10.0,Calm,Calm,-,N/A,,Clear,0,2013-03-19 08:35:00
3:55 AM,32.0,32.0,100,30.08,10.0,Calm,Calm,-,N/A,,Clear,0,2013-03-19 08:55:00
4:15 AM,32.0,32.0,100,30.08,10.0,Calm,Calm,-,N/A,,Clear,0,2013-03-19 09:15:00
4:35 AM,33.8,33.8,100,30.09,10.0,Calm,Calm,-,N/A,,Clear,0,2013-03-19 09:35:00
4:55 AM,32.0,32.0,100,30.10,10.0,NE,3.5,-,N/A,,Clear,50,2013-03-19 09:55:00
5:15 AM,32.0,32.0,100,30.10,10.0,NE,3.5,-,N/A,,Clear,50,2013-03-19 10:15:00
5:35 AM,35.6,30.2,81,30.11,10.0,NE,3.5,-,N/A,,Clear,50,2013-03-19 10:35:00
5:55 AM,35.6,30.2,81,30.12,10.0,Calm,Calm,-,N/A,,Clear,0,2013-03-19 10:55:00
6:15 AM,33.8,30.2,87,30.13,10.0,Calm,Calm,-,N/A,,Clear,0,2013-03-19 11:15:00
6:35 AM,32.0,30.2,93,30.14,10.0,Calm,Calm,-,N/A,,Clear,0,2013-03-19 11:35:00
6:55 AM,32.0,30.2,93,30.16,10.0,Calm,Calm,-,N/A,,Unknown,0,2013-03-19 11:55:00
7:15 AM,33.8,30.2,87,30.16,10.0,Calm,Calm,-,N/A,,Clear,0,2013-03-19 12:15:00
7:35 AM,32.0,28.4,87,30.17,10.0,Calm,Calm,-,N/A,,Clear,0,2013-03-19 12:35:00
7:55 AM,32.0,30.2,93,30.17,10.0,Calm,Calm,-,N/A,,Clear,0,2013-03-19 12:55:00
8:15 AM,33.8,32.0,93,30.19,10.0,Calm,Calm,-,N/A,,Clear,0,2013-03-19 13:15:00
8:35 AM,35.6,32.0,87,30.20,10.0,Calm,Calm,-,N/A,,Clear,0,2013-03-19 13:35:00
8:55 AM,37.4,30.2,75,30.20,10.0,Calm,Calm,-,N/A,,Clear,0,2013-03-19 13:55:00
9:15 AM,41.0,32.0,70,30.20,10.0,Calm,Calm,-,N/A,,Clear,0,2013-03-19 14:15:00
9:35 AM,42.8,30.2,61,30.20,10.0,East,4.6,-,N/A,,Clear,80,2013-03-19 14:35:00
9:55 AM,42.8,32.0,66,30.20,10.0,ENE,6.9,-,N/A,,Clear,60,2013-03-19 14:55:00
10:15 AM,44.6,28.4,53,30.21,10.0,ENE,4.6,-,N/A,,Clear,70,2013-03-19 15:15:00
10:35 AM,48.2,28.4,46,30.22,10.0,East,5.8,-,N/A,,Clear,80,2013-03-19 15:35:00
10:55 AM,50.0,23.0,35,30.21,10.0,East,5.8,-,N/A,,Clear,80,2013-03-19 15:55:00
11:15 AM,50.0,21.2,32,30.21,10.0,East,5.8,-,N/A,,Clear,100,2013-03-19 16:15:00
11:35 AM,51.8,19.4,28,30.22,10.0,ESE,8.1,-,N/A,,Scattered Clouds,110,2013-03-19 16:35:00
11:55 AM,53.6,21.2,28,30.21,10.0,East,5.8,-,N/A,,Scattered Clouds,90,2013-03-19 16:55:00
12:15 PM,53.6,21.2,28,30.21,10.0,East,4.6,-,N/A,,Clear,90,2013-03-19 17:15:00
12:35 PM,53.6,19.4,26,30.20,10.0,ESE,6.9,-,N/A,,Clear,110,2013-03-19 17:35:00
1:15 PM,55.4,19.4,25,30.19,10.0,ESE,3.5,-,N/A,,Clear,110,2013-03-19 18:15:00
1:35 PM,55.4,23.0,29,30.17,10.0,ENE,6.9,-,N/A,,Clear,70,2013-03-19 18:35:00
1:55 PM,55.4,21.2,26,30.17,10.0,ENE,4.6,-,N/A,,Clear,70,2013-03-19 18:55:00
2:15 PM,57.2,23.0,27,30.16,10.0,ESE,8.1,-,N/A,,Clear,120,2013-03-19 19:15:00
2:35 PM,59.0,21.2,23,30.15,10.0,ESE,5.8,-,N/A,,Clear,120,2013-03-19 19:35:00
2:55 PM,59.0,21.2,23,30.15,10.0,SE,8.1,-,N/A,,Clear,140,2013-03-19 19:55:00
3:15 PM,57.2,21.2,25,30.14,10.0,ESE,8.1,-,N/A,,Clear,110,2013-03-19 20:15:00
3:35 PM,59.0,21.2,23,30.14,10.0,NE,3.5,-,N/A,,Clear,40,2013-03-19 20:35:00
3:55 PM,59.0,23.0,25,30.15,10.0,Calm,Calm,-,N/A,,Clear,0,2013-03-19 20:55:00
4:15 PM,57.2,23.0,27,30.15,10.0,Calm,Calm,-,N/A,,Scattered Clouds,0,2013-03-19 21:15:00
4:35 PM,59.0,23.0,25,30.15,10.0,ENE,4.6,-,N/A,,Mostly Cloudy,60,2013-03-19 21:35:00
4:55 PM,57.2,23.0,27,30.15,10.0,Calm,Calm,-,N/A,,Scattered Clouds,0,2013-03-19 21:55:00
5:15 PM,57.2,23.0,27,30.15,10.0,NNE,5.8,-,N/A,,Scattered Clouds,20,2013-03-19 22:15:00
5:35 PM,55.4,24.8,31,30.16,10.0,NNE,9.2,-,N/A,,Scattered Clouds,20,2013-03-19 22:35:00
5:55 PM,53.6,26.6,35,30.16,10.0,NE,10.4,18.4,N/A,,Scattered Clouds,40,2013-03-19 22:55:00
6:15 PM,51.8,26.6,38,30.18,10.0,NNE,12.7,21.9,N/A,,Clear,30,2013-03-19 23:15:00
6:35 PM,50.0,26.6,40,30.19,10.0,NNE,10.4,21.9,N/A,,Clear,20,2013-03-19 23:35:00
6:55 PM,50.0,28.4,43,30.19,10.0,NE,10.4,18.4,N/A,,Clear,40,2013-03-19 23:55:00
7:15 PM,48.2,26.6,43,30.20,10.0,NNE,13.8,21.9,N/A,,Clear,30,2013-03-20 00:15:00
7:35 PM,46.4,26.6,46,30.21,10.0,NE,11.5,17.3,N/A,,Scattered Clouds,40,2013-03-20 00:35:00
7:55 PM,46.4,28.4,50,30.21,10.0,NE,11.5,20.7,N/A,,Scattered Clouds,40,2013-03-20 00:55:00
8:15 PM,46.4,28.4,50,30.23,10.0,NE,11.5,16.1,N/A,,Scattered Clouds,40,2013-03-20 01:15:00
8:35 PM,44.6,30.2,57,30.23,10.0,NE,8.1,21.9,N/A,,Scattered Clouds,40,2013-03-20 01:35:00
8:55 PM,44.6,32.0,61,30.25,10.0,NNE,6.9,18.4,N/A,,Scattered Clouds,30,2013-03-20 01:55:00
9:15 PM,44.6,32.0,61,30.23,10.0,ENE,8.1,-,N/A,,Mostly Cloudy,70,2013-03-20 02:15:00
9:35 PM,44.6,32.0,61,30.25,10.0,NNE,3.5,-,N/A,,Mostly Cloudy,30,2013-03-20 02:35:00
9:55 PM,42.8,32.0,66,30.25,10.0,ENE,5.8,-,N/A,,Scattered Clouds,60,2013-03-20 02:55:00
10:15 PM,42.8,32.0,66,30.27,10.0,ENE,3.5,-,N/A,,Scattered Clouds,60,2013-03-20 03:15:00
10:35 PM,42.8,32.0,66,30.27,10.0,Calm,Calm,-,N/A,,Scattered Clouds,0,2013-03-20 03:35:00
10:55 PM,41.0,32.0,70,30.28,10.0,Calm,Calm,-,N/A,,Clear,0,2013-03-20 03:55:00
11:15 PM,41.0,32.0,70,30.28,10.0,Calm,Calm,-,N/A,,Clear,0,2013-03-20 04:15:00
11:35 PM,41.0,32.0,70,30.28,10.0,Calm,Calm,-,N/A,,Mostly Cloudy,0,2013-03-20 04:35:00
11:55 PM,39.2,32.0,75,30.28,10.0,Calm,Calm,-,N/A,,Scattered Clouds,0,2013-03-20 04:55:00